Regional Weather Roundup
Issued by NWS

Home | Current Version | Previous Version | Text Only | Print | Product List | Glossary On
Versions: 1 2 3 4 5 6 7 8 9 10 11 12 13 14 15 16 17 18 19 20 21 22 23 24 25 26 27 28 29 30 31 32 33 34 35 36 37 38 39 40 41 42 43 44 45 46 47 48 49 50
000
ASUS43 KMPX 172001
RWRMN
WEATHER ROUNDUP FOR MINNESOTA
NATIONAL WEATHER SERVICE TWIN CITIES/CHANHASSEN MN
300 PM CDT FRI APR 17 2015


NOTE: "FAIR" INDICATES FEW OR NO CLOUDS BELOW 12,000 FEET WITH NO
SIGNIFICANT WEATHER AND/OR OBSTRUCTIONS TO VISIBILITY. N/A MEANS
CURRENT SKY AND/OR WEATHER CONDITIONS ARE NOT AVAILABLE.

MNZ060>063-068>070-172100-
   Twin Cities Metro

CITY           SKY/WX    TMP DP  RH WIND       PRES   REMARKS
TWIN CITIES    MOSUNNY   73  40  30 NW5       30.04F
ST PAUL        SUNNY     73  39  29 NW7       30.04F
CRYSTAL        SUNNY     73  32  22 VRB7      30.03F
BLAINE         SUNNY     73  37  27 NW7       30.04F
LAKEVILLE      SUNNY     72  43  35 NW5       30.04F
EDEN PRAIRIE   SUNNY     73  40  30 NW12      30.04F
SOUTH ST PAUL  SUNNY     73  40  29 N6        30.03F
LAKE ELMO      FAIR      72  41  33 NW6       30.04F
$$
MNZ001>005-007-008-013>017-022>024-027-028-172100-
   Northwest Minnesota

CITY           SKY/WX    TMP DP  RH WIND       PRES   REMARKS
BEMIDJI        SUNNY     69  23  17 W18G26    30.03F
HALLOCK        SUNNY     72  18  13 N24G35    30.00R
ROSEAU         SUNNY     72  27  18 NW23G31   29.97R
WARROAD        SUNNY     72  34  25 W25G33    29.96R
THIEF RVR FALL SUNNY     73  21  14 W21G28    30.01F
CROOKSTON      SUNNY     75  21  13 W17G29    30.02F
FOSSTON        SUNNY     70  19  14 W16G22    30.05F
DETROIT LAKES  SUNNY     68  23  18 NW8G18    30.07F
MOORHEAD       SUNNY     73  18  12 NW13G24   30.06F
PARK RAPIDS    SUNNY     73  21  14 W15       30.03F
MAHNOMEN       FAIR      71  22  16 NW14G23   30.05F
$$
MNZ006-009>011-018-025>026-172100-
   North Central Minnesota

CITY           SKY/WX    TMP DP  RH WIND       PRES   REMARKS
BAUDETTE       SUNNY     71  24  17 W20G31    29.95F
FLAG ISLAND    SUNNY     63  27  25 NW20G38   29.93R
INTL FALLS     SUNNY     68  27  21 W20G29    29.95F
WASKISH        SUNNY     64  30  27 SW17      30.00F
BIG FORK       SUNNY     72  21  15 SW16G29   30.00F
LONGVILLE      SUNNY     72  19  14 SW12G20   30.02F
GRAND RAPIDS   SUNNY     68  23  18 W12G18    30.03F
ORR            SUNNY     70  12  11 W16       29.96F
COOK           SUNNY     68  23  18 W13G28    29.99F
WALKER         FAIR      69  22  17 W15G23    30.03F
$$
MNZ012-019>021-037-172100-
   Northeast Minnesota

CITY           SKY/WX    TMP DP  RH WIND       PRES   REMARKS
DULUTH         SUNNY     70  24  17 NW16G22   30.00F
ELY            SUNNY     68  19  15 W16G22    29.97F
HIBBING        SUNNY     70  20  15 W13G21    30.00F
EVELETH        SUNNY     68  21  17 NW15G21   30.00F
DULUTH HARBOR  SUNNY     50  39  66 E5        29.99F
TWO HARBORS    SUNNY     72  39  30 S13       29.97F
SILVER BAY     SUNNY     66  28  24 S10       29.97F
GRAND MARAIS     N/A     42  36  79 SW8       30.00F
G MARAIS ARPRT SUNNY     59  21  23 S10G17    30.00F
$$
MNZ029>031-032-039>041-046>048-054>057-064-172100-
   West Central Minnesota

CITY           SKY/WX    TMP DP  RH WIND       PRES   REMARKS
FERGUS FALLS   SUNNY     72  12  10 NW14G21   30.08F
WHEATON        SUNNY     70  25  18 W9        30.10F
MORRIS         SUNNY     73  19  13 W6        30.07F
ALEXANDRIA     SUNNY     69  17  13 N6        30.09F
ELBOW LAKE     FAIR      68  21  17 N5        30.08S
WADENA         SUNNY     70  30  23 W9G18     30.06S
GLENWOOD       SUNNY     72  21  15 CALM      30.08F
APPLETON       SUNNY     73  10   9 NW5       30.08F
BENSON         SUNNY     72  10   9 N7        30.07F
ORTONVILLE     SUNNY     70  19  14 NW7       30.09F
MADISON        SUNNY     72   9   8 W6        30.08F
WILLMAR        FAIR      73  28  19 N5        30.08S
$$
MNZ033>034-036-042>043-049>051-058-059-172100-
   Central Minnesota

CITY           SKY/WX    TMP DP  RH WIND       PRES   REMARKS
ST CLOUD       SUNNY     70  26  19 W8        30.05F
SAUK CENTRE    FAIR      70  24  17 CALM      30.07F
PAYNESVILLE    SUNNY     68  28  22 W6        30.07F
AITKIN         SUNNY     73  -2   5 SW9       30.01F
PINE RIVER     SUNNY     70  30  23 W7G17     30.06F
BRAINERD       SUNNY     69  22  16 NW10      30.04F
STAPLES        SUNNY     70  19  14 W8G20     30.05F
LONG PRAIRIE   FAIR      68  27  21 W6G16     30.07S
LITTLE FALLS   SUNNY     68  21  17 W6        30.05F
LITCHFIELD     SUNNY     72  27  18 N3        30.07F
BUFFALO        SUNNY     71  31  22 W5        30.06S
MAPLE LAKE     SUNNY     72  34  25 CALM      30.06F
$$
MNZ037-044-045-052-053-172100-
   East Central Minnesota

CITY           SKY/WX    TMP DP  RH WIND       PRES   REMARKS
PRINCETON      SUNNY     72  32  23 W8        30.05F
MORA           SUNNY     70  18  13 CALM      30.05F
CAMBRIDGE      SUNNY     73  46  38 W5        30.02F
RUSH CITY      SUNNY     71  29  21 CALM      30.03F
MOOSE LAKE     SUNNY     72  30  21 CALM      30.00F
HINCKLEY       FAIR      72  27  18 W9        30.02F
CLOQUET        SUNNY     72  10   9 W16       30.00F
MCGREGOR       SUNNY     70  25  18 W7G17     30.02F
$$
MNZ071>073-080-081-089-090-097-098-172100-
   Southwest Minnesota

CITY           SKY/WX    TMP DP  RH WIND       PRES   REMARKS
MONTEVIDEO     SUNNY     75  28  17 N6        30.08F
GRANITE FALLS  SUNNY     72  26  18 CALM      30.09F
CANBY          SUNNY     71  20  15 N7        30.10F
MARSHALL       SUNNY     72  27  18 NW13      30.08F
REDWOOD FALLS  SUNNY     73  35  25 W7        30.05F
OLIVIA         SUNNY     72  32  23 CALM      30.06F
PIPESTONE      SUNNY     72  36  26 CALM      30.08F
WINDOM         SUNNY     73  39  29 NW10G17   30.07F
WORTHINGTON    MOSUNNY   72  43  35 E6        30.07F
JACKSON        MOSUNNY   73  37  27 W6        30.07F
TRACY          SUNNY     73  35  24 NW5       30.08S
SLAYTON        SUNNY     72  36  26 CALM      30.09F
$$
MNZ065>067-074>077-082>085-091>093-172100-
   South Central Minnesota

CITY           SKY/WX    TMP DP  RH WIND       PRES   REMARKS
MANKATO        SUNNY     73  43  33 NE3       30.05F
NEW ULM        SUNNY     73  37  27 NW3       30.05F
ST JAMES       SUNNY     75  39  27 NW3       30.06F
FAIRMONT       SUNNY     75  43  31 NW9       30.05F
GLENCOE        SUNNY     72  42  33 NW6       30.04F
FARIBAULT      SUNNY     73  45  35 W7        30.05S
OWATONNA       MOSUNNY   73  41  31 W7G20     30.05S
ALBERT LEA     MOSUNNY   75  43  31 W8        30.04F
$$
MNZ078>079-086>088-094>096-172100-
   Southeast Minnesota

CITY           SKY/WX    TMP DP  RH WIND       PRES   REMARKS
ROCHESTER      PTSUNNY   73  44  35 W7        30.05S
RED WING       SUNNY     75  39  27 W8        30.01F
STANTON        SUNNY     74  42  32 CALM      30.02F
DODGE CENTER   MOSUNNY   73  45  35 W6        30.04F
WINONA         MOSUNNY   73  45  35 N7        30.02S
AUSTIN         SUNNY     73  45  35 W7        30.05S
PRESTON        SUNNY     73  44  34 W9        30.05S
$$
ABBREVIATIONS USED IN REMARKS
   TC - TEMPERATURES IN CELSIUS
  WCI - WIND CHILL INDEX
   HX - HEAT INDEX
  VSB - VISIBILITY
$$



USA.gov is the U.S. government's official web portal to all federal, state and local government web resources and services.